﻿測定場所 (Monitoring sites),日付 (Measurement date),時間 (Measurement time),線量率 最大値 (max) μGy/h,線量率 最小値 (min) μGy/h,線量率 平均値 (average) μGy/h,
江戸川 (Edogawa),2014-04-27,23:01～24:00,0.0837,0.0717,0.0756,
江戸川 (Edogawa),2014-04-27,22:01～23:00,0.0797,0.0712,0.0749,
江戸川 (Edogawa),2014-04-27,21:01～22:00,0.0828,0.0706,0.0749,
江戸川 (Edogawa),2014-04-27,20:01～21:00,0.0798,0.0721,0.0751,
江戸川 (Edogawa),2014-04-27,19:01～20:00,0.0817,0.0714,0.0754,
江戸川 (Edogawa),2014-04-27,18:01～19:00,0.0790,0.0721,0.0752,
江戸川 (Edogawa),2014-04-27,17:01～18:00,0.0814,0.0712,0.0752,
江戸川 (Edogawa),2014-04-27,16:01～17:00,0.0825,0.0714,0.0753,
江戸川 (Edogawa),2014-04-27,15:01～16:00,0.0795,0.0711,0.0747,
江戸川 (Edogawa),2014-04-27,14:01～15:00,0.0794,0.0722,0.0752,
江戸川 (Edogawa),2014-04-27,13:01～14:00,0.0813,0.0723,0.0753,
江戸川 (Edogawa),2014-04-27,12:01～13:00,0.0799,0.0713,0.0755,
江戸川 (Edogawa),2014-04-27,11:01～12:00,0.0815,0.0719,0.0757,
江戸川 (Edogawa),2014-04-27,10:01～11:00,0.0811,0.0711,0.0755,
江戸川 (Edogawa),2014-04-27,09:01～10:00,0.0818,0.0715,0.0759,
江戸川 (Edogawa),2014-04-27,08:01～09:00,0.0828,0.0721,0.0754,
江戸川 (Edogawa),2014-04-27,07:01～08:00,0.0809,0.0713,0.0754,
江戸川 (Edogawa),2014-04-27,06:01～07:00,0.0786,0.0710,0.0746,
江戸川 (Edogawa),2014-04-27,05:01～06:00,0.0803,0.0709,0.0748,
江戸川 (Edogawa),2014-04-27,04:01～05:00,0.0803,0.0718,0.0747,
江戸川 (Edogawa),2014-04-27,03:01～04:00,0.0781,0.0712,0.0740,
江戸川 (Edogawa),2014-04-27,02:01～03:00,0.0787,0.0718,0.0743,
江戸川 (Edogawa),2014-04-27,01:01～02:00,0.0804,0.0715,0.0744,
江戸川 (Edogawa),2014-04-27,00:01～01:00,0.0802,0.0709,0.0747,
江戸川 (Edogawa),2014-04-26,23:01～24:00,0.0817,0.0712,0.0751,
江戸川 (Edogawa),2014-04-26,22:01～23:00,0.0822,0.0706,0.0751,
江戸川 (Edogawa),2014-04-26,21:01～22:00,0.0801,0.0700,0.0748,
江戸川 (Edogawa),2014-04-26,20:01～21:00,0.0792,0.0713,0.0751,
江戸川 (Edogawa),2014-04-26,19:01～20:00,0.0800,0.0711,0.0751,
江戸川 (Edogawa),2014-04-26,18:01～19:00,0.0824,0.0721,0.0753,
江戸川 (Edogawa),2014-04-26,17:01～18:00,0.0825,0.0724,0.0763,
江戸川 (Edogawa),2014-04-26,16:01～17:00,0.0824,0.0703,0.0756,
江戸川 (Edogawa),2014-04-26,15:01～16:00,0.0808,0.0712,0.0753,
江戸川 (Edogawa),2014-04-26,14:01～15:00,0.0812,0.0716,0.0756,
江戸川 (Edogawa),2014-04-26,13:01～14:00,0.0815,0.0727,0.0760,
江戸川 (Edogawa),2014-04-26,12:01～13:00,0.0811,0.0712,0.0751,
江戸川 (Edogawa),2014-04-26,11:01～12:00,0.0805,0.0715,0.0756,
江戸川 (Edogawa),2014-04-26,10:01～11:00,0.0818,0.0721,0.0752,
江戸川 (Edogawa),2014-04-26,09:01～10:00,0.0830,0.0716,0.0759,
江戸川 (Edogawa),2014-04-26,08:01～09:00,0.0844,0.0720,0.0760,
江戸川 (Edogawa),2014-04-26,07:01～08:00,0.0833,0.0719,0.0758,
江戸川 (Edogawa),2014-04-26,06:01～07:00,0.0800,0.0712,0.0752,
江戸川 (Edogawa),2014-04-26,05:01～06:00,0.0796,0.0712,0.0744,
江戸川 (Edogawa),2014-04-26,04:01～05:00,0.0787,0.0700,0.0741,
江戸川 (Edogawa),2014-04-26,03:01～04:00,0.0796,0.0701,0.0740,
江戸川 (Edogawa),2014-04-26,02:01～03:00,0.0811,0.0700,0.0742,
江戸川 (Edogawa),2014-04-26,01:01～02:00,0.0795,0.0709,0.0748,
江戸川 (Edogawa),2014-04-26,00:01～01:00,0.0800,0.0714,0.0746,
江戸川 (Edogawa),2014-04-25,23:01～24:00,0.0796,0.0705,0.0744,
江戸川 (Edogawa),2014-04-25,22:01～23:00,0.0828,0.0717,0.0743,
江戸川 (Edogawa),2014-04-25,21:01～22:00,0.0816,0.0705,0.0754,
江戸川 (Edogawa),2014-04-25,20:01～21:00,0.0808,0.0710,0.0747,
江戸川 (Edogawa),2014-04-25,19:01～20:00,0.0799,0.0707,0.0750,
江戸川 (Edogawa),2014-04-25,18:01～19:00,0.0807,0.0702,0.0754,
江戸川 (Edogawa),2014-04-25,17:01～18:00,0.0817,0.0721,0.0752,
江戸川 (Edogawa),2014-04-25,16:01～17:00,0.0809,0.0720,0.0751,
江戸川 (Edogawa),2014-04-25,15:01～16:00,0.0812,0.0686,0.0756,
江戸川 (Edogawa),2014-04-25,14:01～15:00,0.0807,0.0717,0.0753,
江戸川 (Edogawa),2014-04-25,13:01～14:00,0.0818,0.0721,0.0755,
江戸川 (Edogawa),2014-04-25,12:01～13:00,0.0799,0.0711,0.0750,
江戸川 (Edogawa),2014-04-25,11:01～12:00,0.0802,0.0710,0.0745,
江戸川 (Edogawa),2014-04-25,10:01～11:00,0.0788,0.0714,0.0751,
江戸川 (Edogawa),2014-04-25,09:01～10:00,0.0794,0.0722,0.0755,
江戸川 (Edogawa),2014-04-25,08:01～09:00,0.0828,0.0703,0.0760,
江戸川 (Edogawa),2014-04-25,07:01～08:00,0.0801,0.0707,0.0747,
江戸川 (Edogawa),2014-04-25,06:01～07:00,0.0807,0.0720,0.0750,
江戸川 (Edogawa),2014-04-25,05:01～06:00,0.0814,0.0705,0.0745,
江戸川 (Edogawa),2014-04-25,04:01～05:00,0.0804,0.0717,0.0750,
江戸川 (Edogawa),2014-04-25,03:01～04:00,0.0793,0.0712,0.0741,
江戸川 (Edogawa),2014-04-25,02:01～03:00,0.0784,0.0706,0.0739,
江戸川 (Edogawa),2014-04-25,01:01～02:00,0.0786,0.0699,0.0735,
江戸川 (Edogawa),2014-04-25,00:01～01:00,0.0803,0.0707,0.0745,
江戸川 (Edogawa),2014-04-24,23:01～24:00,0.0798,0.0701,0.0738,
江戸川 (Edogawa),2014-04-24,22:01～23:00,0.0782,0.0715,0.0740,
江戸川 (Edogawa),2014-04-24,21:01～22:00,0.0818,0.0704,0.0743,
江戸川 (Edogawa),2014-04-24,20:01～21:00,0.0807,0.0711,0.0747,
江戸川 (Edogawa),2014-04-24,19:01～20:00,0.0783,0.0695,0.0740,
江戸川 (Edogawa),2014-04-24,18:01～19:00,0.0800,0.0708,0.0744,
江戸川 (Edogawa),2014-04-24,17:01～18:00,0.0807,0.0711,0.0741,
江戸川 (Edogawa),2014-04-24,16:01～17:00,0.0793,0.0705,0.0745,
江戸川 (Edogawa),2014-04-24,15:01～16:00,0.0828,0.0714,0.0748,
江戸川 (Edogawa),2014-04-24,14:01～15:00,0.0819,0.0719,0.0750,
江戸川 (Edogawa),2014-04-24,13:01～14:00,0.0809,0.0707,0.0751,
江戸川 (Edogawa),2014-04-24,12:01～13:00,0.0789,0.0716,0.0744,
江戸川 (Edogawa),2014-04-24,11:01～12:00,0.0797,0.0705,0.0747,
江戸川 (Edogawa),2014-04-24,10:01～11:00,0.0785,0.0712,0.0743,
江戸川 (Edogawa),2014-04-24,09:01～10:00,0.0802,0.0715,0.0750,
江戸川 (Edogawa),2014-04-24,08:01～09:00,0.0805,0.0698,0.0747,
江戸川 (Edogawa),2014-04-24,07:01～08:00,0.0825,0.0712,0.0749,
江戸川 (Edogawa),2014-04-24,06:01～07:00,0.0795,0.0706,0.0739,
江戸川 (Edogawa),2014-04-24,05:01～06:00,0.0832,0.0699,0.0744,
江戸川 (Edogawa),2014-04-24,04:01～05:00,0.0769,0.0703,0.0733,
江戸川 (Edogawa),2014-04-24,03:01～04:00,0.0806,0.0690,0.0736,
江戸川 (Edogawa),2014-04-24,02:01～03:00,0.0773,0.0702,0.0736,
江戸川 (Edogawa),2014-04-24,01:01～02:00,0.0806,0.0693,0.0737,
江戸川 (Edogawa),2014-04-24,00:01～01:00,0.0779,0.0708,0.0737,
江戸川 (Edogawa),2014-04-23,23:01～24:00,0.0790,0.0704,0.0736,
江戸川 (Edogawa),2014-04-23,22:01～23:00,0.0778,0.0708,0.0735,
江戸川 (Edogawa),2014-04-23,21:01～22:00,0.0811,0.0706,0.0738,
江戸川 (Edogawa),2014-04-23,20:01～21:00,0.0824,0.0703,0.0739,
江戸川 (Edogawa),2014-04-23,19:01～20:00,0.0795,0.0698,0.0741,
江戸川 (Edogawa),2014-04-23,18:01～19:00,0.0793,0.0709,0.0740,
江戸川 (Edogawa),2014-04-23,17:01～18:00,0.0784,0.0703,0.0738,
江戸川 (Edogawa),2014-04-23,16:01～17:00,0.0831,0.0701,0.0741,
江戸川 (Edogawa),2014-04-23,15:01～16:00,0.0784,0.0707,0.0735,
江戸川 (Edogawa),2014-04-23,14:01～15:00,0.0808,0.0709,0.0744,
江戸川 (Edogawa),2014-04-23,13:01～14:00,0.0784,0.0706,0.0743,
江戸川 (Edogawa),2014-04-23,12:01～13:00,0.0828,0.0714,0.0743,
江戸川 (Edogawa),2014-04-23,11:01～12:00,0.0819,0.0702,0.0744,
江戸川 (Edogawa),2014-04-23,10:01～11:00,0.0796,0.0704,0.0740,
江戸川 (Edogawa),2014-04-23,09:01～10:00,0.0795,0.0709,0.0744,
江戸川 (Edogawa),2014-04-23,08:01～09:00,0.0780,0.0699,0.0735,
江戸川 (Edogawa),2014-04-23,07:01～08:00,0.0772,0.0694,0.0731,
江戸川 (Edogawa),2014-04-23,06:01～07:00,0.0777,0.0693,0.0731,
江戸川 (Edogawa),2014-04-23,05:01～06:00,0.0755,0.0683,0.0729,
江戸川 (Edogawa),2014-04-23,04:01～05:00,0.0769,0.0695,0.0732,
江戸川 (Edogawa),2014-04-23,03:01～04:00,0.0794,0.0697,0.0731,
江戸川 (Edogawa),2014-04-23,02:01～03:00,0.0776,0.0693,0.0727,
江戸川 (Edogawa),2014-04-23,01:01～02:00,0.0784,0.0696,0.0731,
江戸川 (Edogawa),2014-04-23,00:01～01:00,0.0798,0.0714,0.0742,
江戸川 (Edogawa),2014-04-22,23:01～24:00,0.0788,0.0714,0.0742,
江戸川 (Edogawa),2014-04-22,22:01～23:00,0.0776,0.0703,0.0732,
江戸川 (Edogawa),2014-04-22,21:01～22:00,0.0766,0.0686,0.0728,
江戸川 (Edogawa),2014-04-22,20:01～21:00,0.0807,0.0706,0.0750,
江戸川 (Edogawa),2014-04-22,19:01～20:00,0.0902,0.0746,0.0838,
江戸川 (Edogawa),2014-04-22,18:01～19:00,0.0939,0.0793,0.0870,
江戸川 (Edogawa),2014-04-22,17:01～18:00,0.0881,0.0726,0.0784,
江戸川 (Edogawa),2014-04-22,16:01～17:00,0.0793,0.0712,0.0746,
江戸川 (Edogawa),2014-04-22,15:01～16:00,0.0843,0.0730,0.0778,
江戸川 (Edogawa),2014-04-22,14:01～15:00,0.0869,0.0719,0.0794,
江戸川 (Edogawa),2014-04-22,13:01～14:00,0.0816,0.0707,0.0742,
江戸川 (Edogawa),2014-04-22,12:01～13:00,0.0795,0.0707,0.0744,
江戸川 (Edogawa),2014-04-22,11:01～12:00,0.0796,0.0710,0.0741,
江戸川 (Edogawa),2014-04-22,10:01～11:00,0.0795,0.0700,0.0742,
江戸川 (Edogawa),2014-04-22,09:01～10:00,0.0798,0.0713,0.0743,
江戸川 (Edogawa),2014-04-22,08:01～09:00,0.0801,0.0704,0.0740,
江戸川 (Edogawa),2014-04-22,07:01～08:00,0.0782,0.0701,0.0735,
江戸川 (Edogawa),2014-04-22,06:01～07:00,0.0800,0.0689,0.0731,
江戸川 (Edogawa),2014-04-22,05:01～06:00,0.0768,0.0702,0.0730,
江戸川 (Edogawa),2014-04-22,04:01～05:00,0.0779,0.0700,0.0731,
江戸川 (Edogawa),2014-04-22,03:01～04:00,0.0787,0.0693,0.0733,
江戸川 (Edogawa),2014-04-22,02:01～03:00,0.0792,0.0702,0.0737,
江戸川 (Edogawa),2014-04-22,01:01～02:00,0.0815,0.0719,0.0758,
江戸川 (Edogawa),2014-04-22,00:01～01:00,0.0848,0.0722,0.0772,
江戸川 (Edogawa),2014-04-21,23:01～24:00,0.0830,0.0731,0.0781,
江戸川 (Edogawa),2014-04-21,22:01～23:00,0.0851,0.0741,0.0797,
江戸川 (Edogawa),2014-04-21,21:01～22:00,0.0833,0.0725,0.0769,
江戸川 (Edogawa),2014-04-21,20:01～21:00,0.0831,0.0718,0.0759,
江戸川 (Edogawa),2014-04-21,19:01～20:00,0.0906,0.0735,0.0785,
江戸川 (Edogawa),2014-04-21,18:01～19:00,0.0859,0.0743,0.0796,
江戸川 (Edogawa),2014-04-21,17:01～18:00,0.0866,0.0737,0.0786,
江戸川 (Edogawa),2014-04-21,16:01～17:00,0.0836,0.0723,0.0770,
江戸川 (Edogawa),2014-04-21,15:01～16:00,0.0814,0.0709,0.0756,
江戸川 (Edogawa),2014-04-21,14:01～15:00,0.0796,0.0706,0.0747,
江戸川 (Edogawa),2014-04-21,13:01～14:00,0.0813,0.0717,0.0756,
江戸川 (Edogawa),2014-04-21,12:01～13:00,0.0803,0.0716,0.0745,
江戸川 (Edogawa),2014-04-21,11:01～12:00,0.0828,0.0718,0.0757,
江戸川 (Edogawa),2014-04-21,10:01～11:00,0.0847,0.0710,0.0757,
江戸川 (Edogawa),2014-04-21,09:01～10:00,0.0816,0.0711,0.0757,
江戸川 (Edogawa),2014-04-21,08:01～09:00,0.0817,0.0723,0.0747,
江戸川 (Edogawa),2014-04-21,07:01～08:00,0.0842,0.0705,0.0765,
江戸川 (Edogawa),2014-04-21,06:01～07:00,0.0817,0.0725,0.0771,
江戸川 (Edogawa),2014-04-21,05:01～06:00,0.0828,0.0724,0.0770,
江戸川 (Edogawa),2014-04-21,04:01～05:00,0.0800,0.0715,0.0756,
江戸川 (Edogawa),2014-04-21,03:01～04:00,0.0813,0.0716,0.0763,
江戸川 (Edogawa),2014-04-21,02:01～03:00,0.0817,0.0727,0.0764,
江戸川 (Edogawa),2014-04-21,01:01～02:00,0.0848,0.0714,0.0775,
江戸川 (Edogawa),2014-04-21,00:01～01:00,0.0835,0.0729,0.0779,
